Tracking 25744 objects as of 25-Jun-2022
HD Live streaming from Space Station
objects crossing your sky now

GALILEO 27 (223)

Track GALILEO 27 (223) now!
GALILEO 27 (223) is classified as:


NORAD ID: 49809
Int'l Code: 2021-117A
Perigee: 23,222.8 km
Apogee: 23,235.4 km
Inclination: 57.2 °
Period: 844.7 minutes
Semi major axis: 29600 km
RCS: Unknown
Launch date: December 5, 2021
Source: France (FR)
Launch site: FRENCH GUIANA (FRGUI)
aabbcc
Your satellite tracking list
Your tracking list is empty




NASA's NSSDC Master Catalog

Two Line Element Set (TLE):
1 49809U 21116A   22175.43174421 -.00000092  00000-0  00000-0 0  9996
2 49809  57.1718  20.8953 0002125 127.1057 231.1744  1.70475891  3390
Source of the keplerian elements: AFSPC